[[{"header":{"parameterUnit":"m.s-1","parameterCategory":2,"la1":30.2991,"la2":30.254,"lo1":-89.0895,"lo2":-89.0444,"dy":0.0017,"dx":0.0017,"nx":28,"ny":28,"refTime":"2026-02-07T03:00:00:Z","depth":"0","parameterNumber":2,"parameterNumberName":"U-component_of_CURRENTS"},"data":[0,0,0,0,0,0,0,0,0,0,0,0,0,0,0,0,0,0,0,0,0,0,0,0,0,0,0,0,0,0,0,0,0,0,0,0,0,0,0,0,0,0,0,0,0,0,0,0,0,0,0,0,0,0,0,0,0,0,-0.2062,-0.2062,0,-0.2103,-0.2103,-0.2104,-0.2073,-0.2072,-0.2071,-0.2069,-0.2063,-0.2064,-0.2065,0,0,0,0,0,0,0,0,0,0,0,0,0,-0.1987,-0.1988,-0.2061,-0.2062,-0.2063,-0.2103,-0.2103,-0.2104,-0.2073,-0.2072,-0.207,-0.2069,-0.2063,-0.2064,-0.2065,0,0,0,0,0,0,0,0,0,0,0,0,0,-0.2022,-0.1988,-0.2061,-0.2053,-0.2053,-0.2103,-0.2103,-0.2104,-0.2074,-0.2072,-0.207,-0.2068,-0.2062,-0.2064,-0.2065,-0.2111,0,0,-0.2069,-0.207,0,0,0,0,0,0,0,0,-0.202,-0.2024,-0.2054,-0.2054,-0.2054,-0.2082,-0.2075,-0.2104,-0.2074,-0.2065,-0.2069,-0.2067,-0.2067,-0.2068,-0.2079,-0.2111,-0.211,-0.207,-0.207,-0.2071,-0.2072,0,0,0,0,0,0,0,-0.2017,-0.2022,-0.2077,-0.2055,-0.2055,-0.2058,-0.2061,-0.208,-0.2074,-0.2065,-0.2063,-0.2071,-0.2066,-0.2078,-0.2078,-0.211,-0.207,-0.2071,-0.2072,-0.2072,-0.221,-0.2213,0,0,0,0,0,0,-0.2015,-0.202,-0.2075,-0.2078,-0.2033,-0.2061,-0.2064,-0.2074,-0.2075,-0.2074,-0.2072,-0.2069,-0.2076,-0.2077,-0.2078,-0.2164,-0.2071,-0.2072,-0.2073,-0.2208,-0.2211,-0.2214,0,0,0,0,0,0,-0.2014,-0.202,-0.2074,-0.2051,-0.2058,-0.2064,-0.2076,-0.2076,-0.2079,-0.2081,-0.2078,-0.2074,-0.2075,-0.2076,-0.2107,-0.2162,-0.2073,-0.2074,-0.2204,-0.2209,-0.2213,-0.2317,0,0,0,0,0,0,-0.2012,-0.2019,-0.2024,-0.2051,-0.2059,-0.212,-0.2078,-0.2078,-0.2087,-0.2083,-0.2082,-0.208,-0.2073,-0.2105,-0.2108,-0.2163,-0.2076,-0.2201,-0.2206,-0.2211,-0.231,-0.2324,-0.2336,0,0,0,0,0,-0.2009,-0.2036,-0.2024,-0.203,-0.2066,-0.2122,-0.2128,-0.2124,-0.2089,-0.2114,-0.2107,-0.208,-0.2141,-0.2109,-0.2112,-0.2168,-0.2198,-0.2205,-0.2211,-0.2304,-0.2321,-0.2336,0,0,0,0,0,0,-0.2008,-0.2036,-0.2023,-0.2056,-0.2089,-0.2118,-0.2139,-0.2128,-0.2142,-0.2129,-0.2111,-0.2111,-0.2171,-0.2153,-0.2117,-0.2225,-0.2168,-0.2175,-0.2237,-0.2254,-0.2267,-0.2235,-0.2077,0,0,0,0,0,-0.201,-0.2032,-0.2063,-0.2089,-0.2107,-0.2118,-0.2135,-0.2137,-0.2154,-0.2156,-0.2158,-0.2166,-0.2204,-0.221,-0.2242,-0.2288,-0.2225,-0.2329,-0.2342,-0.2353,-0.2332,-0.2273,-0.2277,-0.2235,-0.2235,-0.2235,0,0,-0.2013,-0.2034,-0.2043,-0.209,-0.2109,-0.2185,-0.2124,-0.2164,-0.2217,-0.2156,-0.2219,-0.2219,-0.2231,-0.2298,-0.2321,-0.2282,-0.2342,-0.2361,-0.237,-0.2342,-0.2279,-0.2283,-0.2285,-0.2239,-0.2238,-0.2238,0,0,-0.2091,-0.2056,-0.2131,-0.2165,-0.2211,-0.2218,-0.2231,-0.2266,-0.2266,-0.2337,-0.2306,-0.2316,-0.239,-0.2385,-0.2399,-0.2498,-0.2424,-0.2528,-0.2555,-0.25,-0.2501,-0.2501,-0.2455,-0.245,-0.2521,-0.2521,-0.2521,0,-0.21,-0.2179,-0.2162,-0.226,-0.2275,-0.2243,-0.2324,-0.2349,-0.2388,-0.2369,-0.2379,-0.2422,-0.2434,-0.2464,-0.2512,-0.2525,-0.2478,-0.2494,-0.2512,-0.2511,-0.2509,-0.2461,-0.2454,-0.2527,-0.2526,-0.2526,-0.2525,0,-0.227,-0.2308,-0.2352,-0.2447,-0.2472,-0.2519,-0.2544,-0.2553,-0.254,-0.2543,-0.2563,-0.2569,-0.2565,-0.2603,-0.2601,-0.2602,-0.257,-0.2544,-0.2461,-0.2519,-0.2466,-0.2457,-0.2535,-0.2533,-0.2531,-0.253,0,0,-0.2347,-0.2445,-0.2461,-0.2479,-0.2547,-0.2569,-0.2642,-0.2657,-0.2645,-0.2689,-0.2674,-0.2746,-0.2675,-0.2683,-0.2657,-0.2622,-0.2602,-0.2584,-0.2579,-0.2518,-0.2479,-0.2417,-0.24,-0.2571,-0.2569,-0.2568,-0.2456,0,-0.2474,-0.2623,-0.2653,-0.2746,-0.279,-0.2751,-0.2803,-0.2801,-0.2785,-0.277,-0.273,-0.2733,-0.273,-0.2707,-0.2679,-0.2616,-0.2578,-0.2634,-0.2447,-0.2442,-0.2362,-0.2387,-0.2332,-0.2222,-0.2446,-0.2444,-0.2443,0,-0.2647,-0.2692,-0.2804,-0.2797,-0.2813,-0.2869,-0.2821,-0.2866,-0.2833,-0.2816,-0.278,-0.2741,-0.27,-0.269,-0.2586,-0.2619,-0.2557,-0.251,-0.2504,-0.239,-0.2361,-0.2197,-0.2196,-0.2165,-0.2428,-0.2429,-0.243,0,-0.2661,-0.2778,-0.2824,-0.2843,-0.2878,-0.2879,-0.288,-0.2863,-0.2837,-0.2811,-0.278,-0.273,-0.2679,-0.261,-0.2526,-0.2546,-0.2399,-0.2405,-0.2288,-0.2283,-0.2167,-0.2154,-0.2086,-0.2317,-0.2317,-0.2317,-0.2317,0,-0.2745,-0.2772,-0.2823,-0.2839,-0.2833,-0.2874,-0.2847,-0.2841,-0.2822,-0.2778,-0.2773,-0.2719,-0.2652,-0.2564,-0.2507,-0.236,-0.2372,-0.2279,-0.2241,-0.2209,-0.2201,-0.2111,-0.2127,-0.2313,-0.2314,-0.2315,-0.2315,0,-0.273,-0.2794,-0.2809,-0.2836,-0.2837,-0.2817,-0.2797,-0.278,-0.2785,-0.2729,-0.2714,-0.2674,-0.2566,-0.2491,-0.2362,-0.2306,-0.2145,-0.2138,-0.2112,-0.2073,-0.1944,-0.1968,-0.1828,-0.1772,-0.199,-0.1987,-0.1985,0,-0.2733,-0.2754,-0.2756,-0.2754,-0.2758,-0.2742,-0.2731,-0.2738,-0.272,-0.2687,-0.2655,-0.2561,-0.2474,-0.2282,-0.2166,-0.2028,-0.2024,-0.1898,-0.1927,-0.1912,-0.1912,-0.1935,-0.1901,-0.183,-0.1827,-0.1824,-0.1822,0,-0.2681,-0.268,-0.2671,-0.2666,-0.266,-0.2635,-0.2628,-0.261,-0.2622,-0.2593,-0.2546,-0.2482,-0.2305,-0.2133,-0.1958,-0.1874,-0.1859,-0.1841,-0.182,-0.177,-0.1792,-0.1728,-0.1947,-0.18,-0.1802,-0.1804,-0.1805,-0.1806,-0.2597,-0.256,-0.2564,-0.2537,-0.2552,-0.2543,-0.2482,-0.2511,-0.2473,-0.242,-0.2422,-0.2308,-0.2132,-0.1879,-0.1778,-0.1602,-0.1662,-0.1564,-0.1592,-0.1614,-0.1566,-0.1741,-0.1558,-0.1559,-0.1559,-0.156,-0.156,0,-0.2451,-0.2443,-0.2442,-0.2424,-0.2415,-0.2433,-0.2415,-0.2354,-0.2301,-0.2272,-0.2213,-0.2052,-0.1854,-0.1698,-0.1496,-0.1396,-0.1367,-0.1355,-0.1387,-0.136,-0.1493,-0.1493,-0.1293,-0.1293,-0.1293,-0.1293,-0.1293,-0.1293,-0.2368,-0.2311,-0.2311,-0.2279,-0.2277,-0.2207,-0.216,-0.211,-0.2058,-0.1939,-0.1853,-0.1799,-0.1638,-0.1576,-0.1382,-0.1295,-0.125,-0.1214,-0.1212,-0.134,-0.1363,-0.1385,-0.1387,-0.1168,-0.1168,-0.1046,-0.1045,-0.1044]},{"header":{"parameterUnit":"m.s-1","parameterCategory":2,"la1":30.2991,"la2":30.254,"lo1":-89.0895,"lo2":-89.0444,"dy":0.0017,"dx":0.0017,"nx":28,"ny":28,"refTime":"2026-02-07T03:00:00:Z","depth":"0","parameterNumber":3,"parameterNumberName":"V-component_of_CURRENTS"},"data":[0,0,0,0,0,0,0,0,0,0,0,0,0,0,0,0,0,0,0,0,0,0,0,0,0,0,0,0,0,0,0,0,0,0,0,0,0,0,0,0,0,0,0,0,0,0,0,0,0,0,0,0,0,0,0,0,0,0,-0.0232,-0.0232,0,-0.0216,-0.0215,-0.0215,-0.0194,-0.0194,-0.0194,-0.0193,-0.0131,-0.013,-0.0129,0,0,0,0,0,0,0,0,0,0,0,0,0,-0.022,-0.0221,-0.0232,-0.0232,-0.0232,-0.0216,-0.0215,-0.0215,-0.0194,-0.0194,-0.0194,-0.0193,-0.0132,-0.013,-0.0128,0,0,0,0,0,0,0,0,0,0,0,0,0,-0.0216,-0.0221,-0.0232,-0.022,-0.0219,-0.0216,-0.0215,-0.0215,-0.0194,-0.0194,-0.0194,-0.0193,-0.0132,-0.013,-0.0128,-0.0122,0,0,-0.0122,-0.0121,0,0,0,0,0,0,0,0,-0.0216,-0.0216,-0.0222,-0.0221,-0.022,-0.0207,-0.0188,-0.0182,-0.0194,-0.0203,-0.0193,-0.0193,-0.0153,-0.015,-0.0147,-0.0119,-0.0117,-0.0121,-0.012,-0.0119,-0.0119,0,0,0,0,0,0,0,-0.0217,-0.0217,-0.0225,-0.0222,-0.0221,-0.0207,-0.0206,-0.0187,-0.0179,-0.0202,-0.0201,-0.02,-0.0152,-0.0149,-0.0145,-0.0116,-0.0121,-0.012,-0.0118,-0.0117,-0.0023,-0.0022,0,0,0,0,0,0,-0.0223,-0.0217,-0.0225,-0.0224,-0.0218,-0.0208,-0.0207,-0.0211,-0.018,-0.0175,-0.0201,-0.02,-0.0153,-0.0147,-0.0142,-0.0062,-0.0119,-0.0117,-0.0116,-0.0024,-0.0023,-0.0021,0,0,0,0,0,0,-0.0222,-0.0224,-0.0226,-0.0221,-0.022,-0.0209,-0.0213,-0.0211,-0.0207,-0.018,-0.0174,-0.02,-0.0152,-0.0145,-0.0119,-0.0062,-0.0116,-0.0114,-0.0026,-0.0024,-0.0022,0.0053,0,0,0,0,0,0,-0.0222,-0.0224,-0.0228,-0.0221,-0.0221,-0.0223,-0.0214,-0.0211,-0.0208,-0.0206,-0.0177,-0.0171,-0.0151,-0.0122,-0.0117,-0.006,-0.0113,-0.0027,-0.0025,-0.0023,0.0049,0.0058,0.0065,0,0,0,0,0,-0.0222,-0.0233,-0.0229,-0.0229,-0.0228,-0.0223,-0.0221,-0.0211,-0.0208,-0.0206,-0.0183,-0.0172,-0.0103,-0.012,-0.0114,-0.0055,-0.0028,-0.0026,-0.0023,0.0046,0.0056,0.0064,0,0,0,0,0,0,-0.023,-0.0232,-0.0227,-0.0238,-0.0229,-0.022,-0.022,-0.0214,-0.0196,-0.0193,-0.0167,-0.0159,-0.0111,-0.0106,-0.0126,-0.0024,-0.0059,-0.0055,-0.0009,0.0001,0.0008,0.0044,-0.0111,0,0,0,0,0,-0.0235,-0.0243,-0.0237,-0.0244,-0.0242,-0.0231,-0.0229,-0.0222,-0.0207,-0.0199,-0.0173,-0.0141,-0.0095,-0.0069,-0.0045,0.0003,0.0014,0.0047,0.0055,0.0061,0.0093,0.0155,0.0172,-0.0012,-0.0012,-0.0013,0,0,-0.024,-0.0242,-0.0247,-0.0246,-0.024,-0.0211,-0.0228,-0.0227,-0.0181,-0.0194,-0.0133,-0.0123,-0.0083,-0.002,0.0004,-0.0006,0.0111,0.0065,0.0071,0.0099,0.0159,0.0178,0.0194,-0.0011,-0.0011,-0.0011,0,0,-0.0242,-0.0256,-0.0253,-0.0241,-0.0232,-0.0215,-0.0214,-0.02,-0.0174,-0.0131,-0.0111,-0.0063,-0.0021,0.0046,0.0081,0.0144,0.0139,0.0138,0.0224,0.0282,0.0299,0.0314,0.0316,0.0331,0.0154,0.0154,0.0154,0,-0.0245,-0.0231,-0.0251,-0.023,-0.0203,-0.021,-0.0172,-0.0145,-0.0117,-0.0078,-0.0103,0.0007,0.0033,0.0156,0.0184,0.0171,0.0169,0.0188,0.0295,0.031,0.0324,0.0324,0.0339,0.0158,0.0158,0.0157,0.0157,0,-0.0232,-0.0208,-0.0206,-0.0167,-0.0146,-0.0125,-0.0083,-0.0055,-0.0031,0.0009,0.01,0.0132,0.0205,0.0224,0.023,0.0352,0.0303,0.0288,0.0277,0.0348,0.0341,0.0356,0.0164,0.0163,0.0161,0.016,0,0,-0.0259,-0.0203,-0.0197,-0.0155,-0.0107,-0.0089,-0.0008,0.0071,0.0134,0.0171,0.027,0.0357,0.0358,0.0398,0.041,0.0475,0.0559,0.0427,0.0428,0.0437,0.0643,0.0615,0.0626,0.0553,0.0557,0.056,0.0586,0,-0.0229,-0.0166,-0.0142,-0.0059,-0.0016,0.0021,0.0098,0.0166,0.0224,0.0309,0.0376,0.0454,0.0432,0.0461,0.0529,0.0543,0.0605,0.0551,0.0567,0.0568,0.0542,0.0647,0.0634,0.0659,0.06,0.0603,0.0604,0,-0.0206,-0.0166,-0.008,0.0015,0.0035,0.0085,0.0203,0.0267,0.0387,0.0429,0.0522,0.0553,0.0665,0.0621,0.0719,0.0673,0.068,0.0688,0.0688,0.0658,0.0569,0.0585,0.0687,0.0774,0.0626,0.0624,0.0623,0,-0.0195,-0.0112,-0.0036,-0.0005,0.009,0.0141,0.0194,0.0306,0.0371,0.0505,0.0557,0.0673,0.0721,0.077,0.0773,0.0751,0.0851,0.0818,0.0805,0.0799,0.0795,0.0784,0.1001,0.092,0.092,0.092,0.092,0,-0.0154,-0.0097,-0.0031,0.001,0.0095,0.0148,0.0248,0.0322,0.0427,0.051,0.0607,0.0686,0.0762,0.0816,0.0815,0.0846,0.0883,0.0857,0.0836,0.0814,0.0804,0.0882,0.0918,0.0921,0.092,0.092,0.092,0,-0.0138,-0.0087,-0.0005,0.0082,0.0108,0.0163,0.0256,0.0318,0.0415,0.0526,0.0567,0.0706,0.0772,0.0818,0.089,0.0893,0.0975,0.0924,0.0864,0.0838,0.0915,0.0952,0.1147,0.1204,0.0938,0.0938,0.0938,0,-0.011,-0.0068,0.0023,0.0062,0.0103,0.0174,0.022,0.0311,0.0367,0.0526,0.0572,0.0692,0.0755,0.0843,0.0885,0.0904,0.0981,0.0922,0.0917,0.0967,0.0993,0.1026,0.1064,0.0914,0.0914,0.0914,0.0914,0,-0.0069,-0.0043,0.0001,0.0074,0.0128,0.0182,0.0243,0.0277,0.0377,0.0441,0.0534,0.06,0.0733,0.0788,0.085,0.0864,0.1005,0.0918,0.1019,0.1062,0.1069,0.1094,0.0802,0.0912,0.0912,0.0912,0.0912,0.0913,-0.0051,-0.0029,0.0022,0.0086,0.0136,0.0173,0.0186,0.0218,0.026,0.0311,0.0422,0.0455,0.0677,0.0771,0.0827,0.0978,0.0997,0.1018,0.1072,0.111,0.1166,0.0849,0.0906,0.0906,0.0906,0.0906,0.0906,0,-0.0028,-0.0014,0.0035,0.0098,0.0126,0.0159,0.0188,0.0162,0.0144,0.0168,0.0197,0.0347,0.0535,0.0747,0.1004,0.1117,0.1169,0.1193,0.1267,0.1307,0.1069,0.1067,0.1104,0.1104,0.1104,0.1104,0.1104,0.1104,-0.0013,0.0016,0.0026,0.0075,0.0097,0.0095,0.0083,0.0033,0.0012,-0.0019,-0.0001,0.0031,0.0435,0.0998,0.1299,0.1329,0.1475,0.1458,0.1555,0.1399,0.1387,0.1376,0.1388,0.1491,0.1492,0.1776,0.1778,0.178]}],[{"header":{"parameterUnit":"m.s-1","parameterCategory":2,"la1":30.2991,"la2":30.254,"lo1":-89.0895,"lo2":-89.0444,"dy":0.0017,"dx":0.0017,"nx":28,"ny":28,"refTime":"2026-02-07T03:00:00:Z","depth":"2","parameterNumber":2,"parameterNumberName":"U-component_of_CURRENTS"},"data":[0,0,0,0,0,0,0,0,0,0,0,0,0,0,0,0,0,0,0,0,0,0,0,0,0,0,0,0,0,0,0,0,0,0,0,0,0,0,0,0,0,0,0,0,0,0,0,0,0,0,0,0,0,0,0,0,0,0,-0.1778,-0.1779,0,-0.1807,-0.1807,-0.1808,-0.1781,-0.178,-0.1779,-0.1778,-0.1776,-0.1777,-0.1778,0,0,0,0,0,0,0,0,0,0,0,0,0,-0.1726,-0.1727,-0.1778,-0.1779,-0.1779,-0.1807,-0.1807,-0.1808,-0.1781,-0.178,-0.1778,-0.1777,-0.1776,-0.1777,-0.1778,0,0,0,0,0,0,0,0,0,0,0,0,0,-0.175,-0.1727,-0.1778,-0.177,-0.1769,-0.1807,-0.1807,-0.1808,-0.1781,-0.178,-0.1778,-0.1777,-0.1776,-0.1777,-0.1778,-0.1817,0,0,-0.1783,-0.1783,0,0,0,0,0,0,0,0,-0.1749,-0.1752,-0.177,-0.177,-0.177,-0.1789,-0.1788,-0.181,-0.1781,-0.1776,-0.1778,-0.1776,-0.178,-0.1781,-0.1789,-0.1817,-0.1817,-0.1783,-0.1783,-0.1784,-0.1784,0,0,0,0,0,0,0,-0.1747,-0.1751,-0.1789,-0.1771,-0.1771,-0.1773,-0.1775,-0.1793,-0.1785,-0.1776,-0.1774,-0.1779,-0.1779,-0.1787,-0.1788,-0.1817,-0.1783,-0.1784,-0.1785,-0.1785,-0.1873,-0.1874,0,0,0,0,0,0,-0.1746,-0.1749,-0.1788,-0.179,-0.1756,-0.1775,-0.1777,-0.1784,-0.1785,-0.1784,-0.1781,-0.1778,-0.1786,-0.1787,-0.1788,-0.1834,-0.1784,-0.1785,-0.1786,-0.1871,-0.1873,-0.1874,0,0,0,0,0,0,-0.1745,-0.1749,-0.1787,-0.1771,-0.1776,-0.1778,-0.1786,-0.1785,-0.1789,-0.1789,-0.1787,-0.1784,-0.1785,-0.1786,-0.1808,-0.1833,-0.1786,-0.1787,-0.1869,-0.1872,-0.1874,-0.1925,0,0,0,0,0,0,-0.1743,-0.1749,-0.1752,-0.1771,-0.1776,-0.1816,-0.1788,-0.1787,-0.1795,-0.1792,-0.1792,-0.179,-0.1784,-0.1807,-0.181,-0.1834,-0.1788,-0.1867,-0.187,-0.1873,-0.1921,-0.1929,-0.1935,0,0,0,0,0,-0.1741,-0.176,-0.1752,-0.1757,-0.1782,-0.1817,-0.1821,-0.1816,-0.1797,-0.1811,-0.1808,-0.179,-0.1826,-0.1809,-0.1813,-0.1838,-0.1866,-0.1869,-0.1873,-0.1918,-0.1927,-0.1935,0,0,0,0,0,0,-0.1742,-0.176,-0.1752,-0.1774,-0.1794,-0.1813,-0.1826,-0.1821,-0.1831,-0.1824,-0.1812,-0.1812,-0.1838,-0.1837,-0.1818,-0.1872,-0.1843,-0.1847,-0.1876,-0.1885,-0.1891,-0.1909,-0.1789,0,0,0,0,0,-0.1744,-0.1757,-0.1778,-0.1795,-0.1807,-0.1815,-0.1826,-0.1827,-0.1839,-0.1841,-0.1841,-0.1845,-0.1859,-0.1868,-0.1879,-0.1915,-0.1895,-0.1933,-0.194,-0.1946,-0.1963,-0.196,-0.1968,-0.1886,-0.1886,-0.1885,0,0,-0.1747,-0.1759,-0.1766,-0.1795,-0.1808,-0.1837,-0.1818,-0.1845,-0.1871,-0.1842,-0.1873,-0.1868,-0.1873,-0.1907,-0.192,-0.1907,-0.1954,-0.195,-0.1955,-0.197,-0.1964,-0.1972,-0.1979,-0.1888,-0.1887,-0.1887,0,0,-0.1775,-0.1775,-0.1801,-0.182,-0.1846,-0.1856,-0.1864,-0.1887,-0.1899,-0.1935,-0.1915,-0.1931,-0.1954,-0.1965,-0.1973,-0.2029,-0.1986,-0.2025,-0.2079,-0.2075,-0.2082,-0.2087,-0.2047,-0.2049,-0.2033,-0.2033,-0.2033,0,-0.178,-0.1809,-0.1816,-0.1849,-0.1868,-0.1865,-0.1902,-0.1923,-0.1949,-0.1968,-0.1951,-0.1991,-0.1988,-0.2035,-0.205,-0.2046,-0.2019,-0.2044,-0.2083,-0.2089,-0.2093,-0.2051,-0.2052,-0.2036,-0.2035,-0.2035,-0.2035,0,-0.183,-0.185,-0.187,-0.1903,-0.1929,-0.196,-0.1988,-0.2018,-0.2023,-0.2034,-0.208,-0.2085,-0.2108,-0.2109,-0.2098,-0.2138,-0.2097,-0.2085,-0.2059,-0.2104,-0.2057,-0.2057,-0.204,-0.2039,-0.2038,-0.2037,0,0,-0.1845,-0.1895,-0.19,-0.1917,-0.1959,-0.1983,-0.2042,-0.2091,-0.2119,-0.2146,-0.219,-0.222,-0.2209,-0.2218,-0.2206,-0.2209,-0.2207,-0.2166,-0.2164,-0.2119,-0.2167,-0.2076,-0.2066,-0.2194,-0.2195,-0.2196,-0.2109,0,-0.1879,-0.1927,-0.1964,-0.2012,-0.2028,-0.2068,-0.2123,-0.2164,-0.2186,-0.2225,-0.2247,-0.2269,-0.2254,-0.2258,-0.2268,-0.2232,-0.2214,-0.223,-0.2136,-0.2133,-0.2042,-0.2067,-0.1935,-0.1842,-0.2109,-0.2109,-0.2109,0,-0.1907,-0.1931,-0.1981,-0.2043,-0.2064,-0.2107,-0.2176,-0.2228,-0.2286,-0.2311,-0.2346,-0.2338,-0.2373,-0.2335,-0.2316,-0.2322,-0.2251,-0.221,-0.2205,-0.2109,-0.2044,-0.1847,-0.1832,-0.2109,-0.2109,-0.2109,-0.2109,0,-0.186,-0.1942,-0.1974,-0.1994,-0.2072,-0.2126,-0.2177,-0.2242,-0.2267,-0.2348,-0.2354,-0.2406,-0.2412,-0.2378,-0.23,-0.2305,-0.224,-0.2234,-0.2079,-0.207,-0.1936,-0.1914,-0.2192,-0.2192,-0.2192,-0.2192,-0.2193,0,-0.1844,-0.1871,-0.1957,-0.1964,-0.2005,-0.2101,-0.2153,-0.2213,-0.229,-0.2298,-0.2379,-0.238,-0.2419,-0.2378,-0.2314,-0.2197,-0.2249,-0.2093,-0.2052,-0.1947,-0.1928,-0.2151,-0.2147,-0.2189,-0.219,-0.219,-0.2191,0,-0.1755,-0.1816,-0.1847,-0.1946,-0.1966,-0.1993,-0.208,-0.2111,-0.2221,-0.2236,-0.2255,-0.2347,-0.2325,-0.2307,-0.2247,-0.2189,-0.2096,-0.202,-0.1879,-0.1824,-0.1923,-0.1923,-0.1872,-0.1868,-0.1865,-0.1863,-0.186,0,-0.1703,-0.1711,-0.1782,-0.1774,-0.1813,-0.1868,-0.1889,-0.2025,-0.2059,-0.2182,-0.2174,-0.2203,-0.2171,-0.2087,-0.2017,-0.1899,-0.1962,-0.17,-0.1702,-0.193,-0.1895,-0.1901,-0.1905,-0.1528,-0.1523,-0.152,-0.1516,0,-0.1586,-0.1625,-0.1639,-0.163,-0.1646,-0.1669,-0.1733,-0.1742,-0.1908,-0.194,-0.1988,-0.198,-0.1952,-0.1819,-0.171,-0.1627,-0.1731,-0.1616,-0.189,-0.1637,-0.16,-0.1569,-0.1585,-0.1482,-0.1485,-0.1488,-0.149,-0.1491,-0.1484,-0.146,-0.1484,-0.1476,-0.1481,-0.1484,-0.1469,-0.1544,-0.1572,-0.1616,-0.1728,-0.1684,-0.171,-0.1481,-0.1388,-0.1342,-0.1456,-0.1398,-0.1412,-0.143,-0.1413,-0.1374,-0.1207,-0.1209,-0.1211,-0.1212,-0.1213,0,-0.1357,-0.1346,-0.1323,-0.1317,-0.1285,-0.1344,-0.1367,-0.1339,-0.1318,-0.1361,-0.1379,-0.1251,-0.1164,-0.1187,-0.1054,-0.1024,-0.1041,-0.0991,-0.1022,-0.1056,-0.1087,-0.1055,-0.0753,-0.0751,-0.075,-0.0749,0,0,-0.1281,-0.1221,-0.1227,-0.1138,-0.1132,-0.1064,-0.1052,-0.0999,-0.1006,-0.0938,-0.0928,-0.1039,-0.1109,-0.0908,-0.0883,-0.0792,-0.0912,-0.0753,-0.1122,-0.119,-0.1218,-0.132,-0.1308,0,0,0,0,0]},{"header":{"parameterUnit":"m.s-1","parameterCategory":2,"la1":30.2991,"la2":30.254,"lo1":-89.0895,"lo2":-89.0444,"dy":0.0017,"dx":0.0017,"nx":28,"ny":28,"refTime":"2026-02-07T03:00:00:Z","depth":"2","parameterNumber":3,"parameterNumberName":"V-component_of_CURRENTS"},"data":[0,0,0,0,0,0,0,0,0,0,0,0,0,0,0,0,0,0,0,0,0,0,0,0,0,0,0,0,0,0,0,0,0,0,0,0,0,0,0,0,0,0,0,0,0,0,0,0,0,0,0,0,0,0,0,0,0,0,-0.03,-0.03,0,-0.0292,-0.0292,-0.0292,-0.0273,-0.0272,-0.0272,-0.0271,-0.0217,-0.0216,-0.0215,0,0,0,0,0,0,0,0,0,0,0,0,0,-0.0281,-0.0282,-0.03,-0.03,-0.03,-0.0292,-0.0292,-0.0292,-0.0273,-0.0272,-0.0272,-0.0271,-0.0218,-0.0216,-0.0215,0,0,0,0,0,0,0,0,0,0,0,0,0,-0.0282,-0.0282,-0.03,-0.029,-0.0289,-0.0292,-0.0292,-0.0292,-0.0273,-0.0272,-0.0272,-0.0271,-0.0218,-0.0216,-0.0215,-0.0215,0,0,-0.021,-0.0209,0,0,0,0,0,0,0,0,-0.0282,-0.0283,-0.0291,-0.029,-0.0289,-0.0283,-0.0266,-0.0264,-0.0273,-0.0278,-0.0271,-0.0271,-0.0236,-0.0233,-0.0232,-0.0212,-0.021,-0.0209,-0.0208,-0.0208,-0.0207,0,0,0,0,0,0,0,-0.0282,-0.0283,-0.0296,-0.0291,-0.029,-0.028,-0.0279,-0.0265,-0.0259,-0.0278,-0.0276,-0.0277,-0.0235,-0.0234,-0.0231,-0.0209,-0.021,-0.0208,-0.0207,-0.0206,-0.0182,-0.0182,0,0,0,0,0,0,-0.0286,-0.0283,-0.0296,-0.0296,-0.0285,-0.0281,-0.028,-0.0285,-0.026,-0.0256,-0.0277,-0.0276,-0.0237,-0.0233,-0.0229,-0.0234,-0.0208,-0.0206,-0.0205,-0.0181,-0.0182,-0.0182,0,0,0,0,0,0,-0.0286,-0.0288,-0.0297,-0.029,-0.029,-0.0282,-0.0287,-0.0285,-0.0283,-0.026,-0.0255,-0.0277,-0.0236,-0.0231,-0.022,-0.0232,-0.0205,-0.0204,-0.0181,-0.0181,-0.0182,-0.0241,0,0,0,0,0,0,-0.0285,-0.0288,-0.0292,-0.029,-0.0291,-0.0305,-0.0288,-0.0286,-0.0285,-0.0283,-0.0258,-0.0253,-0.0236,-0.0222,-0.0218,-0.0229,-0.0203,-0.018,-0.0181,-0.0182,-0.0239,-0.0244,-0.0248,0,0,0,0,0,-0.0285,-0.03,-0.0293,-0.0294,-0.0298,-0.0306,-0.0306,-0.0297,-0.0285,-0.0291,-0.0273,-0.0253,-0.0223,-0.0222,-0.0216,-0.0227,-0.018,-0.0181,-0.0182,-0.0237,-0.0243,-0.0248,0,0,0,0,0,0,-0.0295,-0.03,-0.0291,-0.0306,-0.0307,-0.0303,-0.0308,-0.03,-0.0291,-0.0285,-0.0259,-0.0253,-0.0248,-0.0228,-0.0226,-0.0221,-0.0198,-0.0198,-0.0242,-0.0247,-0.0251,-0.0244,-0.0201,0,0,0,0,0,-0.0299,-0.0311,-0.0309,-0.032,-0.0322,-0.0313,-0.0314,-0.0309,-0.0302,-0.0297,-0.0279,-0.0259,-0.0249,-0.024,-0.0226,-0.0223,-0.0181,-0.0225,-0.0229,-0.0233,-0.0223,-0.0166,-0.0164,-0.0185,-0.0185,-0.0185,0,0,-0.0306,-0.0309,-0.0315,-0.0323,-0.032,-0.0341,-0.0313,-0.032,-0.033,-0.0292,-0.0296,-0.0275,-0.0251,-0.0251,-0.0246,-0.0234,-0.021,-0.0234,-0.0238,-0.0225,-0.0167,-0.0164,-0.0162,-0.0185,-0.0185,-0.0185,0,0,-0.0339,-0.0327,-0.0355,-0.0358,-0.0361,-0.0358,-0.0362,-0.0358,-0.0346,-0.0348,-0.0324,-0.0305,-0.0293,-0.0275,-0.0265,-0.0283,-0.0237,-0.0284,-0.0299,-0.0245,-0.0243,-0.024,-0.0202,-0.0195,-0.0284,-0.0285,-0.0285,0,-0.0347,-0.0381,-0.0363,-0.0391,-0.0398,-0.037,-0.0401,-0.039,-0.0382,-0.0368,-0.0357,-0.0318,-0.0303,-0.0288,-0.03,-0.0293,-0.0257,-0.0284,-0.025,-0.0247,-0.0243,-0.0204,-0.0196,-0.0287,-0.0287,-0.0287,-0.0287,0,-0.041,-0.043,-0.0444,-0.0471,-0.0473,-0.0492,-0.0476,-0.0466,-0.0445,-0.0431,-0.0402,-0.0367,-0.0335,-0.0338,-0.0328,-0.0299,-0.0282,-0.0265,-0.0237,-0.0244,-0.0203,-0.0194,-0.0292,-0.0291,-0.029,-0.0289,0,0,-0.0451,-0.0484,-0.0489,-0.0509,-0.0514,-0.0526,-0.0525,-0.0519,-0.051,-0.0478,-0.0462,-0.0433,-0.0388,-0.0372,-0.0343,-0.0305,-0.0263,-0.0279,-0.0275,-0.0242,-0.0149,-0.0146,-0.0135,-0.0237,-0.0235,-0.0234,-0.0138,0,-0.0507,-0.0579,-0.0571,-0.0623,-0.0657,-0.0615,-0.0613,-0.0593,-0.0564,-0.0538,-0.0473,-0.0453,-0.0408,-0.0391,-0.0339,-0.0273,-0.0237,-0.029,-0.0145,-0.0141,-0.0137,-0.0123,-0.0145,-0.0062,-0.0129,-0.0127,-0.0126,0,-0.0582,-0.0617,-0.0683,-0.0694,-0.0699,-0.0715,-0.0691,-0.0684,-0.0628,-0.0589,-0.0529,-0.0489,-0.0413,-0.0388,-0.024,-0.0273,-0.0216,-0.017,-0.0164,-0.0128,-0.0119,-0.0061,-0.0042,-0.0109,-0.011,-0.0112,-0.0113,0,-0.0644,-0.0692,-0.0744,-0.0754,-0.0762,-0.0759,-0.075,-0.0706,-0.0701,-0.0622,-0.0614,-0.0493,-0.0442,-0.0329,-0.0216,-0.0224,-0.0068,-0.0064,-0.001,-0.0009,0.0019,0.0019,0.0021,0.0021,0.0021,0.002,0.002,0,-0.0717,-0.0754,-0.0775,-0.0806,-0.0841,-0.0813,-0.0823,-0.0783,-0.0746,-0.0747,-0.0642,-0.0619,-0.0427,-0.0327,-0.0217,-0.0065,-0.005,-0.0001,0.0024,-0.0006,-0.0009,-0.0009,-0.0014,0.0024,0.0023,0.0023,0.0022,0,-0.0775,-0.0796,-0.0855,-0.0872,-0.0879,-0.0899,-0.0898,-0.0901,-0.0841,-0.0841,-0.0825,-0.0701,-0.054,-0.037,-0.018,-0.0074,0.0063,0.0095,0.0041,0.0058,0.0081,0.0072,0.0182,0.0184,0.0184,0.0185,0.0186,0,-0.0812,-0.0852,-0.0907,-0.0941,-0.0951,-0.0972,-0.0985,-0.0949,-0.0954,-0.0901,-0.091,-0.078,-0.0673,-0.0372,-0.0153,0.007,0.0067,0.0159,0.0138,0.0089,0.0102,0.0091,0.0082,0.0147,0.0148,0.0148,0.0148,0,-0.0864,-0.088,-0.0919,-0.0996,-0.1036,-0.1076,-0.1093,-0.112,-0.1069,-0.1057,-0.1002,-0.0927,-0.0652,-0.0391,-0.0103,0.0018,0.0136,0.0168,0.0161,0.0099,0.0062,0.0072,0.0062,0.015,0.015,0.015,0.0149,0.0149,-0.088,-0.0916,-0.0964,-0.1031,-0.1091,-0.1147,-0.1167,-0.1178,-0.1185,-0.1135,-0.1065,-0.0899,-0.0677,-0.0252,-0.0052,0.0158,0.0135,0.0202,0.0199,0.0197,0.0165,0.0131,0.0225,0.0226,0.0226,0.0226,0.0226,0,-0.0884,-0.0926,-0.0992,-0.107,-0.1135,-0.1162,-0.1212,-0.1202,-0.1199,-0.1123,-0.1035,-0.0764,-0.0508,-0.0259,0.0056,0.0218,0.0219,0.0262,0.0227,0.0223,0.022,0.0189,0.0256,0.0257,0.0258,0.0259,0,0,-0.0885,-0.0937,-0.0973,-0.1076,-0.1135,-0.1196,-0.1221,-0.1205,-0.1138,-0.1034,-0.0903,-0.076,-0.0483,-0.0251,-0.0049,0.0124,0.0141,0.0149,0.0103,0.0034,0.003,0.0159,0.0103,0,0,0,0,0]}],[{"header":{"parameterUnit":"m.s-1","parameterCategory":2,"la1":30.2991,"la2":30.254,"lo1":-89.0895,"lo2":-89.0444,"dy":0.0017,"dx":0.0017,"nx":28,"ny":28,"refTime":"2026-02-07T03:00:00:Z","depth":"4","parameterNumber":2,"parameterNumberName":"U-component_of_CURRENTS"},"data":[0,0,0,0,0,0,0,0,0,0,0,0,0,0,0,0,0,0,0,0,0,0,0,0,0,0,0,0,0,0,0,0,0,0,0,0,0,0,0,0,0,0,0,0,0,0,0,0,0,0,0,0,0,0,0,0,0,0,-0.1262,-0.1262,0,-0.1305,-0.1306,-0.1306,-0.1322,-0.1322,-0.1322,-0.1321,-0.1369,-0.137,-0.1372,0,0,0,0,0,0,0,0,0,0,0,0,0,-0.1207,-0.1208,-0.1262,-0.1262,-0.1263,-0.1305,-0.1306,-0.1306,-0.1322,-0.1322,-0.1322,-0.1321,-0.1368,-0.137,-0.1372,0,0,0,0,0,0,0,0,0,0,0,0,0,-0.1238,-0.1208,-0.1262,-0.1276,-0.1278,-0.1305,-0.1306,-0.1306,-0.1322,-0.1322,-0.1322,-0.1321,-0.1368,-0.137,-0.1372,-0.1388,0,0,-0.1378,-0.1379,0,0,0,0,0,0,0,0,-0.1236,-0.124,-0.1274,-0.1275,-0.1277,-0.1308,-0.1304,-0.1334,-0.1322,-0.1305,-0.1321,-0.1321,-0.1349,-0.1353,-0.1361,-0.139,-0.1392,-0.1378,-0.138,-0.1381,-0.1381,0,0,0,0,0,0,0,-0.1234,-0.1239,-0.1279,-0.1274,-0.1276,-0.1285,-0.1289,-0.1309,-0.1327,-0.1306,-0.1308,-0.1313,-0.135,-0.1359,-0.1362,-0.1393,-0.1378,-0.138,-0.1381,-0.1382,-0.1481,-0.1482,0,0,0,0,0,0,-0.1229,-0.1237,-0.1277,-0.128,-0.1256,-0.1286,-0.1291,-0.1298,-0.1327,-0.1331,-0.1313,-0.1314,-0.1355,-0.136,-0.1364,-0.1413,-0.1381,-0.1382,-0.1384,-0.148,-0.1481,-0.1483,0,0,0,0,0,0,-0.1228,-0.1233,-0.1276,-0.1259,-0.1265,-0.1287,-0.1295,-0.1299,-0.1325,-0.1332,-0.1337,-0.1337,-0.1355,-0.1361,-0.14,-0.1414,-0.1383,-0.1385,-0.1478,-0.148,-0.1482,-0.1493,0,0,0,0,0,0,-0.1226,-0.1232,-0.1246,-0.1259,-0.1266,-0.1305,-0.1296,-0.13,-0.1327,-0.1329,-0.1354,-0.1357,-0.1356,-0.1397,-0.1402,-0.1416,-0.1387,-0.1476,-0.1479,-0.1481,-0.1491,-0.1496,-0.1499,0,0,0,0,0,-0.1224,-0.1243,-0.1247,-0.1252,-0.1281,-0.1306,-0.1311,-0.1326,-0.1329,-0.1347,-0.1365,-0.1357,-0.1417,-0.14,-0.1406,-0.142,-0.1475,-0.1478,-0.1481,-0.1489,-0.1495,-0.1499,0,0,0,0,0,0,-0.1231,-0.1247,-0.1251,-0.1275,-0.1295,-0.1309,-0.1331,-0.1339,-0.1367,-0.1375,-0.1377,-0.1383,-0.1419,-0.1427,-0.1408,-0.1459,-0.1444,-0.1449,-0.1449,-0.1454,-0.1458,-0.1441,-0.1389,0,0,0,0,0,-0.1237,-0.1255,-0.1271,-0.1293,-0.1305,-0.1322,-0.1338,-0.1348,-0.1369,-0.1382,-0.1399,-0.1419,-0.1435,-0.145,-0.1468,-0.1501,-0.1493,-0.1515,-0.1519,-0.1522,-0.1515,-0.1512,-0.1514,-0.1493,-0.1493,-0.1493,0,0,-0.1247,-0.1258,-0.127,-0.1296,-0.1313,-0.133,-0.1332,-0.1364,-0.1379,-0.1384,-0.1421,-0.1437,-0.1448,-0.1478,-0.1496,-0.1488,-0.1529,-0.1526,-0.1529,-0.1519,-0.1515,-0.1517,-0.1518,-0.1495,-0.1495,-0.1495,0,0,-0.1263,-0.1286,-0.1301,-0.1319,-0.1347,-0.1357,-0.137,-0.1398,-0.1414,-0.145,-0.1452,-0.1476,-0.1514,-0.1515,-0.152,-0.1561,-0.1549,-0.1577,-0.1583,-0.1581,-0.1582,-0.1583,-0.1588,-0.1589,-0.1579,-0.1579,-0.1579,0,-0.1276,-0.1288,-0.1312,-0.1328,-0.1342,-0.1368,-0.1384,-0.1406,-0.1444,-0.1456,-0.1467,-0.1507,-0.1524,-0.1535,-0.1553,-0.1567,-0.1568,-0.1559,-0.1583,-0.1584,-0.1584,-0.1589,-0.159,-0.158,-0.158,-0.158,-0.158,0,-0.129,-0.1308,-0.1323,-0.1344,-0.1369,-0.1391,-0.1417,-0.1446,-0.147,-0.1484,-0.1516,-0.1536,-0.1554,-0.1569,-0.1575,-0.1589,-0.1591,-0.1585,-0.1563,-0.1586,-0.1591,-0.1592,-0.1582,-0.1581,-0.1581,-0.1581,0,0,-0.1287,-0.1323,-0.1328,-0.133,-0.1377,-0.1388,-0.1428,-0.1453,-0.1465,-0.1508,-0.1516,-0.1555,-0.1566,-0.1573,-0.1583,-0.1588,-0.1603,-0.1594,-0.1593,-0.1585,-0.1607,-0.1501,-0.1492,-0.1601,-0.1601,-0.16,-0.1613,0,-0.1285,-0.1302,-0.1331,-0.1348,-0.1352,-0.1394,-0.1416,-0.1449,-0.1484,-0.1504,-0.1525,-0.1545,-0.1567,-0.1577,-0.1586,-0.16,-0.1604,-0.1601,-0.1597,-0.1597,-0.1488,-0.1488,-0.16,-0.1613,-0.1613,-0.1613,-0.1614,0,-0.1272,-0.1283,-0.13,-0.132,-0.1328,-0.1352,-0.1386,-0.1411,-0.1454,-0.1481,-0.1511,-0.1533,-0.1559,-0.1565,-0.1593,-0.1593,-0.1602,-0.1607,-0.1607,-0.1499,-0.1491,-0.1584,-0.1614,-0.1614,-0.1614,-0.1614,-0.1614,0,-0.1215,-0.1252,-0.1258,-0.127,-0.1309,-0.1329,-0.1354,-0.1404,-0.1425,-0.1469,-0.1489,-0.152,-0.1537,-0.1555,-0.1591,-0.1596,-0.1607,-0.161,-0.152,-0.1514,-0.16,-0.16,-0.161,-0.161,-0.161,-0.161,-0.161,0,-0.1168,-0.1174,-0.1234,-0.1231,-0.124,-0.1287,-0.1306,-0.1341,-0.1389,-0.14,-0.1471,-0.1476,-0.1535,-0.1558,-0.1582,-0.155,-0.1602,-0.1509,-0.1499,-0.1609,-0.1609,-0.1601,-0.16,-0.161,-0.161,-0.161,-0.161,0,-0.1087,-0.113,-0.1139,-0.1191,-0.1209,-0.1214,-0.1276,-0.1286,-0.1348,-0.1367,-0.1383,-0.145,-0.1474,-0.1525,-0.1551,-0.1521,-0.1512,-0.1487,-0.1608,-0.1607,-0.1427,-0.1427,-0.1378,-0.1374,-0.1371,-0.1368,-0.1366,0,-0.1037,-0.1038,-0.1101,-0.1114,-0.1141,-0.1168,-0.1184,-0.1252,-0.1269,-0.1337,-0.1329,-0.138,-0.1415,-0.1366,-0.1432,-0.1448,-0.1438,-0.1424,-0.1413,-0.1402,-0.1399,-0.1404,-0.1408,-0.1361,-0.136,-0.1359,-0.1358,0,-0.095,-0.0994,-0.1008,-0.1035,-0.1061,-0.1075,-0.1108,-0.1106,-0.1174,-0.125,-0.1233,-0.1243,-0.1258,-0.1283,-0.1302,-0.1318,-0.1427,-0.139,-0.1397,-0.1386,-0.1381,-0.1382,-0.1389,-0.1347,-0.1348,-0.1349,-0.135,0,-0.0898,-0.0895,-0.0934,-0.0945,-0.0977,-0.0967,-0.0993,-0.1002,-0.1023,-0.1107,-0.1095,-0.1158,-0.1224,-0.1215,-0.1237,-0.1237,-0.1224,-0.1188,-0.1205,-0.1218,-0.1162,-0.1132,-0.0999,0,0,0,0,0,-0.0841,-0.0835,-0.084,-0.0847,-0.0874,-0.0887,-0.0936,-0.0969,-0.1038,-0.099,-0.1038,-0.1048,-0.1059,-0.11,-0.107,-0.1184,-0.1241,-0.1145,-0.121,-0.1284,-0.1297,-0.1248,0,0,0,0,0,0,-0.0806,-0.0815,-0.0811,-0.0764,-0.0747,-0.0758,-0.0782,-0.0829,-0.0809,-0.089,-0.0904,-0.0974,-0.101,-0.1057,-0.1043,-0.1058,-0.1075,-0.1196,-0.1193,-0.1277,-0.1288,-0.1299,-0.1253,0,0,0,0,0]},{"header":{"parameterUnit":"m.s-1","parameterCategory":2,"la1":30.2991,"la2":30.254,"lo1":-89.0895,"lo2":-89.0444,"dy":0.0017,"dx":0.0017,"nx":28,"ny":28,"refTime":"2026-02-07T03:00:00:Z","depth":"4","parameterNumber":3,"parameterNumberName":"V-component_of_CURRENTS"},"data":[0,0,0,0,0,0,0,0,0,0,0,0,0,0,0,0,0,0,0,0,0,0,0,0,0,0,0,0,0,0,0,0,0,0,0,0,0,0,0,0,0,0,0,0,0,0,0,0,0,0,0,0,0,0,0,0,0,0,-0.0233,-0.0233,0,-0.0236,-0.0236,-0.0236,-0.0226,-0.0226,-0.0226,-0.0226,-0.0191,-0.0191,-0.019,0,0,0,0,0,0,0,0,0,0,0,0,0,-0.0211,-0.0211,-0.0233,-0.0233,-0.0233,-0.0236,-0.0236,-0.0236,-0.0226,-0.0226,-0.0226,-0.0225,-0.0192,-0.0191,-0.019,0,0,0,0,0,0,0,0,0,0,0,0,0,-0.0218,-0.0211,-0.0233,-0.0229,-0.0229,-0.0236,-0.0236,-0.0236,-0.0226,-0.0226,-0.0226,-0.0225,-0.0192,-0.0191,-0.019,-0.0192,0,0,-0.0187,-0.0186,0,0,0,0,0,0,0,0,-0.0217,-0.0218,-0.023,-0.0229,-0.0229,-0.0231,-0.0215,-0.0219,-0.0227,-0.0227,-0.0226,-0.0225,-0.0201,-0.02,-0.0201,-0.019,-0.0189,-0.0187,-0.0186,-0.0186,-0.0185,0,0,0,0,0,0,0,-0.0217,-0.0218,-0.0234,-0.023,-0.0229,-0.0224,-0.0225,-0.0216,-0.0216,-0.0227,-0.0226,-0.0227,-0.0201,-0.0202,-0.02,-0.0188,-0.0187,-0.0186,-0.0185,-0.0185,-0.0191,-0.0192,0,0,0,0,0,0,-0.0218,-0.0218,-0.0234,-0.0234,-0.0222,-0.0225,-0.0225,-0.023,-0.0216,-0.0214,-0.0227,-0.0227,-0.0204,-0.0201,-0.0199,-0.0231,-0.0186,-0.0185,-0.0184,-0.019,-0.0191,-0.0192,0,0,0,0,0,0,-0.0218,-0.022,-0.0234,-0.0226,-0.0227,-0.0226,-0.0231,-0.023,-0.0234,-0.0217,-0.0214,-0.0231,-0.0204,-0.02,-0.02,-0.0228,-0.0184,-0.0183,-0.0189,-0.0191,-0.0192,-0.0275,0,0,0,0,0,0,-0.0217,-0.0219,-0.0225,-0.0226,-0.0228,-0.0248,-0.0231,-0.0231,-0.0235,-0.0234,-0.022,-0.0216,-0.0203,-0.0202,-0.0199,-0.0226,-0.0183,-0.0188,-0.019,-0.0191,-0.0271,-0.0279,-0.0285,0,0,0,0,0,-0.0216,-0.0232,-0.0226,-0.0228,-0.0235,-0.0248,-0.0249,-0.0246,-0.0235,-0.0245,-0.0234,-0.0217,-0.0209,-0.0202,-0.0198,-0.0226,-0.0188,-0.019,-0.0191,-0.0268,-0.0277,-0.0285,0,0,0,0,0,0,-0.0226,-0.0232,-0.0226,-0.0242,-0.0247,-0.0247,-0.0256,-0.025,-0.0249,-0.0246,-0.0226,-0.0222,-0.0233,-0.0213,-0.0206,-0.023,-0.0196,-0.0197,-0.0255,-0.0264,-0.0271,-0.0288,-0.0182,0,0,0,0,0,-0.023,-0.0243,-0.0244,-0.0257,-0.026,-0.0257,-0.0261,-0.0259,-0.0258,-0.0257,-0.0247,-0.0237,-0.0238,-0.0237,-0.0231,-0.0243,-0.0211,-0.0257,-0.0264,-0.027,-0.0281,-0.0266,-0.0273,-0.0198,-0.0198,-0.0198,0,0,-0.0237,-0.0242,-0.0249,-0.026,-0.0261,-0.0287,-0.0259,-0.0271,-0.0295,-0.0253,-0.0277,-0.026,-0.0245,-0.0264,-0.0267,-0.0251,-0.0269,-0.0272,-0.0278,-0.0286,-0.0268,-0.0276,-0.0282,-0.0199,-0.0199,-0.0198,0,0,-0.0271,-0.0262,-0.029,-0.0298,-0.0307,-0.0307,-0.0312,-0.0315,-0.0318,-0.0335,-0.0315,-0.0317,-0.0311,-0.0316,-0.0315,-0.0355,-0.0306,-0.0346,-0.0401,-0.0386,-0.0392,-0.0397,-0.0345,-0.0345,-0.0352,-0.0352,-0.0352,0,-0.028,-0.0315,-0.0299,-0.0331,-0.0346,-0.0321,-0.0359,-0.0362,-0.0366,-0.0376,-0.0352,-0.0357,-0.0343,-0.0376,-0.0391,-0.0375,-0.0339,-0.0373,-0.0396,-0.0401,-0.0405,-0.035,-0.0349,-0.0356,-0.0356,-0.0355,-0.0355,0,-0.0341,-0.0366,-0.0382,-0.0415,-0.0428,-0.0452,-0.0455,-0.0465,-0.0457,-0.046,-0.0477,-0.0455,-0.0458,-0.0455,-0.0438,-0.0465,-0.042,-0.0406,-0.0378,-0.0417,-0.0356,-0.0354,-0.0362,-0.0361,-0.036,-0.0358,0,0,-0.0372,-0.0418,-0.0425,-0.0451,-0.0473,-0.049,-0.0527,-0.0556,-0.058,-0.0572,-0.0601,-0.0604,-0.0576,-0.0573,-0.0546,-0.0536,-0.0526,-0.0487,-0.0484,-0.0441,-0.0461,-0.042,-0.0412,-0.0514,-0.0514,-0.0515,-0.0399,0,-0.0427,-0.0501,-0.051,-0.0575,-0.061,-0.0602,-0.0641,-0.0659,-0.0657,-0.0674,-0.0653,-0.0664,-0.0626,-0.0621,-0.061,-0.0548,-0.0526,-0.0557,-0.0424,-0.042,-0.0385,-0.0411,-0.0517,-0.0397,-0.0396,-0.0396,-0.0395,0,-0.0493,-0.053,-0.0608,-0.0655,-0.0669,-0.0706,-0.0746,-0.0774,-0.0789,-0.0785,-0.0786,-0.0755,-0.0746,-0.07,-0.0622,-0.0638,-0.0561,-0.0505,-0.0499,-0.0435,-0.0376,-0.0353,-0.039,-0.039,-0.0391,-0.0391,-0.0391,0,-0.0527,-0.0597,-0.0659,-0.0677,-0.0729,-0.0763,-0.0786,-0.0814,-0.0832,-0.0848,-0.0849,-0.0832,-0.0808,-0.0734,-0.0615,-0.0616,-0.0506,-0.049,-0.0377,-0.0371,-0.0404,-0.04,-0.0437,-0.0437,-0.0437,-0.0437,-0.0438,0,-0.058,-0.0627,-0.068,-0.0712,-0.0778,-0.0801,-0.0859,-0.0878,-0.09,-0.0918,-0.09,-0.0892,-0.0815,-0.0737,-0.0633,-0.049,-0.0514,-0.0391,-0.0351,-0.0437,-0.0438,-0.04,-0.0397,-0.0433,-0.0434,-0.0435,-0.0436,0,-0.0603,-0.0646,-0.0711,-0.0774,-0.0798,-0.0839,-0.0891,-0.0922,-0.0941,-0.0957,-0.0959,-0.093,-0.0832,-0.0726,-0.0593,-0.0504,-0.0378,-0.0317,-0.0394,-0.0359,-0.0243,-0.0246,-0.0188,-0.0186,-0.0184,-0.0183,-0.0181,0,-0.062,-0.066,-0.0739,-0.0775,-0.0806,-0.0865,-0.0904,-0.094,-0.0957,-0.0965,-0.0963,-0.09,-0.0857,-0.0633,-0.0533,-0.0335,-0.0306,-0.0232,-0.0269,-0.0256,-0.0223,-0.0229,-0.0234,-0.0179,-0.0178,-0.0178,-0.0177,0,-0.0635,-0.0666,-0.0709,-0.0784,-0.0837,-0.089,-0.0938,-0.0949,-0.0975,-0.0993,-0.0944,-0.0855,-0.0744,-0.061,-0.0458,-0.0318,-0.0285,-0.0213,-0.0216,-0.025,-0.0244,-0.0214,-0.0222,-0.0171,-0.0172,-0.0172,-0.0173,0,-0.0631,-0.0658,-0.0716,-0.0777,-0.0847,-0.0894,-0.0923,-0.0931,-0.0948,-0.0945,-0.0925,-0.0829,-0.0787,-0.0597,-0.0456,-0.0323,-0.0291,-0.0245,-0.0246,-0.0251,-0.0314,-0.0318,-0.024,0,0,0,0,0,-0.0618,-0.0647,-0.0703,-0.0774,-0.0842,-0.0883,-0.0936,-0.0953,-0.0973,-0.0929,-0.0924,-0.0816,-0.0632,-0.057,-0.0426,-0.0422,-0.0271,-0.0249,-0.0219,-0.0136,-0.0144,-0.0205,0,0,0,0,0,0,-0.0611,-0.066,-0.069,-0.0757,-0.0803,-0.0874,-0.091,-0.0924,-0.0894,-0.0897,-0.0802,-0.0767,-0.0593,-0.0709,-0.042,-0.0385,-0.0342,-0.0174,-0.017,-0.0132,-0.0139,-0.0145,-0.021,0,0,0,0,0]}]]